When you browse on this site, cookies collect data to enhance your experience and personalize the content and advertising you see.
Visit our Privacy Policy to learn more. By continuing to use the site, you agree to this use of cookies and data.
  • en Suisse
  • Liste des pays
  • À 7 jours
  • Température de l'eau
  • Carte météo
  • Widgets météo
  • user-avatar
    Se connecter

    Météo par heure à Vasilkovka

    Ce jour, 26 Février, Mercredi

    Heure Température Précipitation Vent Pression Humidité
    00:00 0°C° 0 mm 4 m/s 747 mmHg 83%
    01:00 0°C° 0 mm 5 m/s 747 mmHg 85%
    02:00 -1°C° 0 mm 6 m/s 746 mmHg 88%
    03:00 -1°C° 0 mm 6 m/s 746 mmHg 89%
    04:00 -1°C° 0 mm 6 m/s 745 mmHg 90%
    05:00 -1°C° 0 mm 6 m/s 745 mmHg 91%
    06:00 -1°C° 0 mm 6 m/s 745 mmHg 88%
    07:00 0°C° 0 mm 7 m/s 745 mmHg 84%
    08:00 0°C° 0 mm 7 m/s 744 mmHg 81%
    09:00 +3°C° 0 mm 7 m/s 744 mmHg 74%
    10:00 +4°C° 0 mm 8 m/s 744 mmHg 67%
    11:00 +5°C° 0 mm 8 m/s 743 mmHg 59%
    12:00 +6°C° 0 mm 8 m/s 743 mmHg 58%
    13:00 +7°C° 0 mm 8 m/s 742 mmHg 57%
    14:00 +9°C° 0 mm 8 m/s 742 mmHg 56%
    15:00 +8°C° 0 mm 7 m/s 742 mmHg 59%
    16:00 +8°C° 0 mm 7 m/s 741 mmHg 61%
    17:00 +7°C° 0 mm 6 m/s 741 mmHg 64%
    18:00 +7°C° 0 mm 6 m/s 741 mmHg 66%
    19:00 +5°C° 0 mm 7 m/s 741 mmHg 69%
    20:00 +4°C° 0 mm 7 m/s 742 mmHg 71%
    21:00 +4°C° 0 mm 7 m/s 741 mmHg 73%
    22:00 +3°C° 0 mm 6 m/s 741 mmHg 76%
    23:00 +3°C° 0 mm 6 m/s 741 mmHg 78%

    Demain, 27 Février, Jeudi

    Heure Température Précipitation Vent Pression Humidité
    00:00 +3°C° 0 mm 5 m/s 741 mmHg 79%
    01:00 +3°C° 0 mm 5 m/s 741 mmHg 81%
    02:00 +3°C° 0 mm 5 m/s 741 mmHg 83%
    03:00 +2°C° 0 mm 5 m/s 741 mmHg 85%
    04:00 +2°C° 0 mm 5 m/s 740 mmHg 87%
    05:00 +2°C° 0 mm 5 m/s 740 mmHg 89%
    06:00 +3°C° 0 mm 5 m/s 740 mmHg 89%
    07:00 +3°C° 0 mm 6 m/s 740 mmHg 89%
    08:00 +4°C° 0 mm 6 m/s 740 mmHg 89%
    09:00 +5°C° 0 mm 6 m/s 740 mmHg 85%
    10:00 +6°C° 0 mm 7 m/s 739 mmHg 82%
    11:00 +9°C° 0 mm 7 m/s 739 mmHg 78%
    12:00 +9°C° 0 mm 7 m/s 739 mmHg 77%
    13:00 +10°C° 0 mm 7 m/s 738 mmHg 76%
    14:00 +10°C° 0 mm 7 m/s 738 mmHg 74%
    15:00 +10°C° 0 mm 7 m/s 738 mmHg 76%
    16:00 +10°C° 0 mm 6 m/s 738 mmHg 77%
    17:00 +10°C° 0 mm 6 m/s 738 mmHg 79%
    18:00 +9°C° 0 mm 6 m/s 738 mmHg 81%
    19:00 +9°C° 0 mm 6 m/s 738 mmHg 83%
    20:00 +8°C° 0 mm 7 m/s 739 mmHg 85%
    21:00 +8°C° 0 mm 6 m/s 739 mmHg 87%
    22:00 +8°C° 0 mm 6 m/s 738 mmHg 88%
    23:00 +7°C° 0 mm 6 m/s 738 mmHg 90%

    Après-demain, 28 Février, Vendredi

    Heure Température Précipitation Vent Pression Humidité
    00:00 +6°C° 0 mm 7 m/s 738 mmHg 87%
    01:00 +8°C° 0 mm 7 m/s 737 mmHg 83%
    02:00 +7°C° 0 mm 8 m/s 737 mmHg 80%
    03:00 +7°C° 0 mm 8 m/s 737 mmHg 78%
    04:00 +6°C° 0 mm 7 m/s 736 mmHg 77%
    05:00 +6°C° 0 mm 7 m/s 736 mmHg 75%
    06:00 +5°C° 0.1 mm 7 m/s 737 mmHg 78%
    07:00 +4°C° 0.1 mm 7 m/s 737 mmHg 81%
    08:00 +3°C° 0.1 mm 7 m/s 738 mmHg 83%
    09:00 +3°C° 0.1 mm 7 m/s 739 mmHg 80%
    10:00 +2°C° 0.1 mm 8 m/s 739 mmHg 77%
    11:00 +2°C° 0.1 mm 8 m/s 740 mmHg 74%
    12:00 +2°C° 0 mm 8 m/s 741 mmHg 69%
    13:00 +4°C° 0 mm 7 m/s 743 mmHg 63%
    14:00 +4°C° 0 mm 7 m/s 744 mmHg 58%
    15:00 +4°C° 0 mm 6 m/s 744 mmHg 59%
    16:00 +3°C° 0 mm 5 m/s 745 mmHg 60%
    17:00 +4°C° 0 mm 4 m/s 745 mmHg 61%
    18:00 +3°C° 0 mm 3 m/s 746 mmHg 64%
    19:00 +2°C° 0 mm 3 m/s 747 mmHg 67%
    20:00 +2°C° 0 mm 2 m/s 747 mmHg 69%
    21:00 +2°C° 0 mm 2 m/s 747 mmHg 70%
    22:00 +2°C° 0 mm 2 m/s 748 mmHg 72%
    23:00 +2°C° 0 mm 2 m/s 748 mmHg 73%

    29 Février, Samedi

    Heure Température Précipitation Vent Pression Humidité
    00:00 +2°C° 0 mm 2 m/s 748 mmHg 72%
    01:00 +2°C° 0 mm 2 m/s 748 mmHg 72%
    02:00 +2°C° 0 mm 2 m/s 748 mmHg 72%
    03:00 +1°C° 0 mm 3 m/s 748 mmHg 74%
    04:00 +1°C° 0 mm 3 m/s 747 mmHg 76%
    05:00 +1°C° 0 mm 3 m/s 747 mmHg 78%
    06:00 +1°C° 0 mm 3 m/s 747 mmHg 78%
    07:00 +1°C° 0 mm 3 m/s 747 mmHg 77%
    08:00 +2°C° 0 mm 3 m/s 747 mmHg 76%
    09:00 +3°C° 0 mm 4 m/s 747 mmHg 73%
    10:00 +4°C° 0 mm 4 m/s 747 mmHg 70%
    11:00 +5°C° 0 mm 4 m/s 746 mmHg 67%
    12:00 +5°C° 0.1 mm 4 m/s 746 mmHg 67%
    13:00 +5°C° 0.1 mm 4 m/s 746 mmHg 66%
    14:00 +6°C° 0.1 mm 4 m/s 746 mmHg 65%
    15:00 +5°C° 0.2 mm 4 m/s 746 mmHg 71%
    16:00 +5°C° 0.2 mm 4 m/s 746 mmHg 76%
    17:00 +4°C° 0.2 mm 3 m/s 746 mmHg 82%
    18:00 +4°C° 0.4 mm 3 m/s 746 mmHg 85%
    19:00 +3°C° 0.4 mm 3 m/s 747 mmHg 88%
    20:00 +3°C° 0.4 mm 3 m/s 747 mmHg 92%
    21:00 +3°C° 0.3 mm 3 m/s 747 mmHg 91%
    22:00 +1°C° 0.3 mm 4 m/s 748 mmHg 91%
    23:00 +1°C° 0.3 mm 4 m/s 748 mmHg 90%

    1 Mars, Dimanche

    Heure Température Précipitation Vent Pression Humidité
    00:00 +1°C° 0 mm 4 m/s 748 mmHg 89%
    01:00 0°C° 0 mm 5 m/s 749 mmHg 88%
    02:00 -1°C° 0 mm 6 m/s 749 mmHg 87%
    03:00 0°C° 0 mm 5 m/s 750 mmHg 87%
    04:00 -1°C° 0 mm 5 m/s 750 mmHg 86%
    05:00 -1°C° 0 mm 5 m/s 751 mmHg 85%
    06:00 -1°C° 0 mm 5 m/s 751 mmHg 83%
    07:00 -1°C° 0 mm 5 m/s 752 mmHg 82%
    08:00 -1°C° 0 mm 5 m/s 752 mmHg 80%
    09:00 +1°C° 0 mm 5 m/s 753 mmHg 73%
    10:00 +2°C° 0 mm 5 m/s 753 mmHg 65%
    11:00 +3°C° 0 mm 5 m/s 753 mmHg 58%
    12:00 +5°C° 0 mm 5 m/s 753 mmHg 55%
    13:00 +5°C° 0 mm 4 m/s 754 mmHg 52%
    14:00 +6°C° 0 mm 4 m/s 754 mmHg 49%
    15:00 +5°C° 0 mm 3 m/s 754 mmHg 52%
    16:00 +4°C° 0 mm 3 m/s 754 mmHg 55%
    17:00 +5°C° 0 mm 2 m/s 754 mmHg 57%
    18:00 +5°C° 0 mm 1 m/s 754 mmHg 60%
    19:00 +5°C° 0 mm 1 m/s 755 mmHg 63%
    20:00 +4°C° 0 mm 1 m/s 755 mmHg 67%
    21:00 +4°C° 0 mm 1 m/s 755 mmHg 70%
    22:00 +2°C° 0 mm 2 m/s 755 mmHg 73%
    23:00 +2°C° 0 mm 2 m/s 755 mmHg 76%

    2 Mars, Lundi

    Heure Température Précipitation Vent Pression Humidité
    00:00 +1°C° 0 mm 2 m/s 755 mmHg 77%
    01:00 +1°C° 0 mm 2 m/s 755 mmHg 79%
    02:00 0°C° 0 mm 3 m/s 755 mmHg 80%
    03:00 0°C° 0 mm 3 m/s 755 mmHg 80%
    04:00 -1°C° 0 mm 3 m/s 755 mmHg 79%
    05:00 -1°C° 0 mm 3 m/s 755 mmHg 78%
    06:00 -1°C° 0 mm 4 m/s 755 mmHg 75%
    07:00 0°C° 0 mm 4 m/s 754 mmHg 71%
    08:00 0°C° 0 mm 5 m/s 754 mmHg 68%
    09:00 +1°C° 0 mm 5 m/s 754 mmHg 63%
    10:00 +3°C° 0 mm 5 m/s 754 mmHg 59%
    11:00 +5°C° 0 mm 5 m/s 754 mmHg 55%
    12:00 +5°C° 0 mm 5 m/s 753 mmHg 54%
    13:00 +6°C° 0 mm 5 m/s 753 mmHg 53%
    14:00 +5°C° 0 mm 6 m/s 752 mmHg 52%
    15:00 +5°C° 0 mm 5 m/s 752 mmHg 55%
    16:00 +5°C° 0 mm 5 m/s 752 mmHg 58%
    17:00 +3°C° 0 mm 5 m/s 751 mmHg 62%
    18:00 +3°C° 0 mm 5 m/s 751 mmHg 62%
    19:00 +2°C° 0 mm 5 m/s 751 mmHg 63%
    20:00 +2°C° 0 mm 5 m/s 751 mmHg 63%
    21:00 +2°C° 0 mm 5 m/s 751 mmHg 65%
    22:00 +1°C° 0 mm 5 m/s 751 mmHg 66%
    23:00 +1°C° 0 mm 5 m/s 751 mmHg 68%
    Voir plus